Weather reports worldwide

Advertisment
Hoherodskopf/Vogelsberg, Germany (10534): temperature & dewpoint: 06.12.2018 00:00:00 - 12.12.2018 00:00:00 (CET)Hoherodskopf/Vogelsberg, Germany (10534): temperature 5cm & temperature -5cm: 06.12.2018 00:00:00 - 12.12.2018 00:00:00 (CET)Hoherodskopf/Vogelsberg, Germany (10534): temperature -20cm & temperature -100cm: 06.12.2018 00:00:00 - 12.12.2018 00:00:00 (CET)Hoherodskopf/Vogelsberg, Germany (10534): wind speed & gusts: 06.12.2018 00:00:00 - 12.12.2018 00:00:00 (CET)Hoherodskopf/Vogelsberg, Germany (10534): wind direction: 06.12.2018 00:00:00 - 12.12.2018 00:00:00 (CET)Hoherodskopf/Vogelsberg, Germany (10534): reduced air pressure: 06.12.2018 00:00:00 - 12.12.2018 00:00:00 (CET)Hoherodskopf/Vogelsberg, Germany (10534): visibility: 06.12.2018 00:00:00 - 12.12.2018 00:00:00 (CET)Hoherodskopf/Vogelsberg, Germany (10534): sunshine duration: 06.12.2018 00:00:00 - 12.12.2018 00:00:00 (CET)Hoherodskopf/Vogelsberg, Germany (10534): precipitation: 06.12.2018 00:00:00 - 12.12.2018 00:00:00 (CET)
Date & Time tt [°C] td [°C] tt 5cm [°C] tt -5cm [°C] tt -20cm [°C] tt -100cm [°C] ff [km/h] ff [kn] fx [km/h] fx [kn] dd ppp [hPa] vv [km] sd [min] rr [mm]
12.12.2018 00:00:00 -0,9 -0,9 -0,9 1,0 3,3 7,2 26 14 36 20 NW 1023,3 0,3 0 0,0
11.12.2018 23:00:00 -0,6 -0,6 -0,3 1,0 3,3 7,2 18 10 26 14 NW 1023,5 0,1 0 0,2
11.12.2018 22:00:00 -0,7 -0,7 -0,5 1,0 3,3 7,2 14 8 22 12 WNW 1023,4 0,1 0 0,0
11.12.2018 21:00:00 -0,7 -0,7 -0,5 1,0 3,4 7,2 13 7 23 12 WNW 1023,2 0,1 0 0,0
11.12.2018 20:00:00 -0,7 -0,7 -0,5 1,0 3,4 7,2 10 6 19 10 WNW 1023,4 0,1 0 0,0
11.12.2018 19:00:00 -0,6 -0,6 -0,4 1,0 3,4 7,2 14 8 23 13 WNW 1023,2 0,1 0 0,0
11.12.2018 18:00:00 -0,6 -0,6 -0,4 1,0 3,4 7,2 12 7 28 15 WNW 1022,9 0,1 0 0,0
11.12.2018 17:00:00 -0,6 -0,6 -0,4 1,0 3,4 7,2 17 9 32 17 WNW 1022,5 14 0 0,0
11.12.2018 16:00:00 -0,4 -0,4 -0,2 1,0 3,4 7,2 18 10 38 20 WNW 1022,4 0,3 0 0,0
11.12.2018 15:00:00 -0,4 -0,4 -0,1 1,0 3,5 7,2 23 12 37 20 WNW 1022,2 0,3 0 0,0
11.12.2018 14:00:00 -0,4 -0,4 -0,1 1,0 3,5 7,2 19 10 37 20 WNW 1022,1 3,2 0 0,0
11.12.2018 13:00:00 -0,5 -0,5 -0,3 1,0 3,5 7,2 17 9 31 17 WNW 1022,3 0,1 0 0,1
11.12.2018 12:00:00 -0,8 -0,8 -0,4 1,0 3,5 7,2 19 10 34 19 W 1022,4 0,1 0 0,0
11.12.2018 11:00:00 -1,1 -1,1 -0,7 1,0 3,5 7,2 18 10 31 17 WNW 1022,5 0,1 0 0,0
11.12.2018 10:00:00 -1,1 -1,1 -0,7 1,0 3,5 7,2 17 9 30 16 WNW 1022,3 0,1 0 0,0
11.12.2018 09:00:00 -1,3 -1,3 -1,1 1,0 3,6 7,2 18 10 30 16 W 1022,3 0,1 0 0,0
11.12.2018 08:00:00 -1,4 -1,4 -1,1 1,0 3,6 7,2 19 10 30 16 WNW 1022,0 0,1 0 0,0
11.12.2018 07:00:00 -1,3 -1,3 -1,1 1,0 3,6 7,2 22 12 30 16 WNW 1021,7 0,1 0 0,0
11.12.2018 06:00:00 -1,3 -1,3 -1,1 1,0 3,6 7,2 19 11 37 20 WNW 1021,7 0,1 0 0,0
11.12.2018 05:00:00 -1,2 -1,2 -1,0 1,0 3,6 7,2 24 13 34 18 WNW 1021,7 0,1 0 0,0
11.12.2018 04:00:00 -1,1 -1,1 -0,9 1,0 3,7 7,2 21 12 32 17 W 1021,8 0,1 0 0,0
11.12.2018 03:00:00 -1,1 -1,1 -0,9 1,0 3,7 7,2 19 10 38 20 WNW 1021,8 0,1 0 0,0
11.12.2018 02:00:00 -1,1 -1,1 -0,9 1,0 3,7 7,2 25 13 36 20 WNW 1021,3 0,1 0 0,0
11.12.2018 01:00:00 -1,0 -1,0 -0,9 1,0 3,7 7,2 23 12 37 20 WNW 1021,4 0,1 0 0,0
11.12.2018 00:00:00 -1,1 -1,1 -0,9 1,0 3,8 7,2 19 10 34 19 WNW 1021,3 0,1 0 0,2
10.12.2018 23:00:00 -1,2 -1,2 -0,9 1,0 3,8 7,2 25 13 37 20 WNW 1021,3 0,1 0 0,0
10.12.2018 22:00:00 -1,4 -1,4 -1,1 1,0 3,8 7,2 24 13 37 20 WNW 1021,3 0,1 0 0,0
10.12.2018 21:00:00 -1,4 -1,4 -1,1 1,0 3,9 7,2 23 13 40 22 WNW 1021,0 0,1 0 0,0
10.12.2018 20:00:00 -1,2 -1,2 -1,1 1,0 3,9 7,2 27 14 40 22 WNW 1020,7 0,1 0 0,0
10.12.2018 19:00:00 -1,1 -1,1 -0,9 1,1 3,9 7,2 24 13 41 22 WNW 1021,0 0,5 0 0,0
10.12.2018 18:00:00 -1,0 -1,0 -0,8 1,1 3,9 7,2 28 15 51 28 W 1020,4 0,2 0 0,0
10.12.2018 17:00:00 -0,8 -0,8 -0,5 1,1 4,0 7,2 36 20 49 26 WNW 1019,8 26 0 0,0
10.12.2018 16:00:00 -0,3 -0,3 0,0 1,2 4,0 7,2 30 16 47 26 WNW 1019,6 0,1 0 0,0
10.12.2018 15:00:00 0,0 0,0 0,1 1,2 4,0 7,2 29 16 58 31 W 1019,2 0,1 0 0,1
10.12.2018 14:00:00 -0,1 -0,1 0,1 1,4 4,1 7,2 24 13 42 23 W 1019,9 3,0 0 0,0
10.12.2018 13:00:00 -0,3 -0,3 0,1 1,6 4,1 7,2 26 14 49 26 W 1020,3 22 0 0,0
10.12.2018 12:00:00 -0,1 -0,1 0,5 1,5 4,1 7,2 29 16 45 24 W 1020,2 1,6 0 0,0
10.12.2018 11:00:00 -0,5 -0,5 0,0 1,3 4,2 7,2 27 15 44 24 W 1020,5 0,1 1 0,0
10.12.2018 10:00:00 -0,7 -0,7 -0,3 1,2 4,2 7,2 23 13 41 22 W 1020,1 0,1 0 0,0
10.12.2018 09:00:00 -0,7 -0,7 -0,5 1,2 4,3 7,2 26 14 41 22 W 1019,3 0,1 0 0,0
10.12.2018 08:00:00 -0,6 -0,6 -0,4 1,2 4,3 7,2 28 15 46 25 WNW 1018,7 0,2 0 0,0
10.12.2018 07:00:00 -0,5 -0,5 -0,3 1,3 4,3 7,2 29 16 46 25 WNW 1018,0 0,1 0 0,0
10.12.2018 06:00:00 -0,4 -0,4 -0,3 1,4 4,4 7,2 26 14 45 25 W 1017,2 0,1 0 0,0
10.12.2018 05:00:00 -0,3 -0,3 -0,1 1,5 4,4 7,2 26 14 41 22 W 1017,0 0,1 0 0,0
10.12.2018 04:00:00 -0,2 -0,2 0,0 1,6 4,5 7,2 32 17 48 26 W 1016,1 0,5 0 0,0
10.12.2018 03:00:00 0,2 0,2 0,3 1,6 4,5 7,2 31 17 46 25 WNW 1015,4 0,1 0 0,1
10.12.2018 02:00:00 0,4 0,4 0,4 1,6 4,5 7,2 21 11 40 22 W 1014,7 0,3 0 0,0
10.12.2018 01:00:00 0,7 -0,2 0,4 1,7 4,6 7,2 30 16 44 24 WNW 1013,9 26 0 0,0
10.12.2018 00:00:00 0,6 0,6 0,4 1,8 4,6 7,2 27 15 45 24 WNW 1013,2 16 0 0,0
09.12.2018 23:00:00 0,6 0,6 0,1 2,0 4,6 7,2 29 15 68 37 WNW 1012,0 26 0 0,3
09.12.2018 22:00:00 0,9 0,9 0,6 2,7 4,6 7,2 32 17 58 32 WNW 1010,6 8 0 0,6
09.12.2018 21:00:00 2,1 2,1 2,2 2,7 4,7 7,2 34 18 53 28 WNW 1008,8 0,1 0 0,1
09.12.2018 20:00:00 1,9 1,9 2,0 2,7 4,7 7,2 24 13 46 25 W 1007,8 0,1 0 0,1
09.12.2018 19:00:00 1,6 1,6 1,7 2,8 4,7 7,2 26 14 37 20 W 1006,8 0,1 0 0,1
09.12.2018 18:00:00 1,6 1,6 1,8 2,9 4,7 7,2 25 14 39 21 W 1005,5 0,1 0 0,0
09.12.2018 17:00:00 1,6 1,6 1,8 3,0 4,7 7,2 27 15 46 25 W 1004,4 0,1 0 0,1
09.12.2018 16:00:00 1,6 1,6 1,6 3,2 4,7 7,2 30 16 51 28 WNW 1003,1 0,3 0 1,4
09.12.2018 15:00:00 2,3 2,3 2,5 3,5 4,7 7,2 32 17 52 28 W 1001,2 0,1 0 0,0
09.12.2018 14:00:00 2,8 2,8 3,0 3,5 4,7 7,2 32 18 54 29 WSW 1000,4 0,1 0 0,6
09.12.2018 13:00:00 2,9 2,9 3,1 3,4 4,7 7,2 27 15 45 24 WSW 1000,4 0,1 0 2,1
09.12.2018 12:00:00 2,9 2,9 3,1 3,4 4,8 7,2 32 17 53 28 WSW 1000,4 16 0 0,3
09.12.2018 11:00:00 2,9 2,6 2,9 3,3 4,8 7,2 35 19 58 31 WSW 1000,1 13 0 0,2
09.12.2018 10:00:00 2,7 2,7 2,8 3,2 4,8 7,2 29 15 56 31 W 999,8 0,3 0 1,6
09.12.2018 09:00:00 2,6 2,6 2,6 3,2 4,8 7,3 35 19 56 30 WSW 998,9 0,2 0 1,6
09.12.2018 08:00:00 2,2 2,2 2,1 3,3 4,8 7,3 27 14 63 34 W 998,4 0,1 0 2,4
09.12.2018 07:00:00 2,7 2,7 2,8 3,6 4,8 7,3 35 19 58 31 W 997,3 2,0 0 0,4
09.12.2018 06:00:00 3,7 2,1 3,0 3,7 4,8 7,3 29 16 60 33 W 996,8 14 0 0,0
09.12.2018 05:00:00 3,9 2,8 3,4 3,8 4,8 7,3 36 19 70 38 W 996,1 36 0 0,1
09.12.2018 04:00:00 4,2 3,0 3,7 3,9 4,8 7,3 42 23 76 41 WSW 995,8 37 0 0,0
09.12.2018 03:00:00 4,1 3,5 3,7 4,0 4,8 7,3 40 22 62 34 WSW 995,4 34 0 0,0
09.12.2018 02:00:00 4,1 4,1 4,1 4,1 4,8 7,3 33 18 54 29 SW 995,7 0,6 0 0,0
09.12.2018 01:00:00 4,3 4,3 4,4 4,1 4,8 7,3 37 20 63 34 WSW 996,5 0,1 0 2,6
09.12.2018 00:00:00 4,5 4,5 4,5 3,9 4,8 7,3 42 23 73 39 SW 997,5 0,1 0 0,7
08.12.2018 23:00:00 4,2 4,2 4,2 3,8 4,9 7,3 40 22 77 42 SSW 999,0 0,1 0 0,1
08.12.2018 22:00:00 3,8 3,8 3,8 3,6 4,9 7,2 45 24 69 37 SSW 1000,6 0,1 0 0,3
08.12.2018 21:00:00 3,5 3,5 3,6 3,5 4,9 7,2 38 20 59 32 SSW 1002,8 0,1 0 0,3
08.12.2018 20:00:00 3,4 3,4 3,5 3,4 4,9 7,2 34 18 58 31 SW 1004,2 0,1 0 0,7
08.12.2018 19:00:00 3,1 3,1 3,2 3,4 4,9 7,2 32 17 56 30 SW 1005,3 0,1 0 0,0
08.12.2018 18:00:00 3,0 3,0 3,1 3,4 5,0 7,2 38 21 59 32 SW 1006,0 0,1 0 0,0
08.12.2018 17:00:00 2,9 2,9 3,0 3,3 5,0 7,2 37 20 61 33 SW 1006,0 0,6 0 0,2
08.12.2018 16:00:00 2,9 2,9 3,0 3,3 5,0 7,2 32 18 54 29 WSW 1006,0 0,1 0 0,0
08.12.2018 15:00:00 2,8 2,8 2,9 3,2 5,1 7,2 32 17 61 33 WSW 1006,1 0,1 0 0,8
08.12.2018 14:00:00 2,6 2,6 2,7 3,1 5,1 7,2 34 18 62 33 SW 1006,2 0,1 0 0,2
08.12.2018 13:00:00 2,1 2,1 2,3 3,0 5,1 7,2 36 20 61 33 SW 1006,5 0,1 0 0,1
08.12.2018 12:00:00 1,7 1,7 1,8 2,9 5,2 7,2 36 20 65 35 SW 1007,0 0,1 0 0,1
08.12.2018 11:00:00 1,6 1,6 1,8 2,9 5,2 7,2 38 20 62 33 SW 1007,3 0,1 0 0,0
08.12.2018 10:00:00 1,6 1,6 1,7 2,8 5,3 7,2 39 21 61 33 SW 1007,8 0,1 0 0,2
08.12.2018 09:00:00 1,5 1,5 1,6 2,8 5,3 7,2 37 20 61 33 SW 1008,4 0,1 0 0,1
08.12.2018 08:00:00 1,2 1,2 1,2 2,9 5,4 7,2 37 20 60 32 SSW 1008,7 0,1 0 0,0
08.12.2018 07:00:00 1,1 1,1 1,2 3,0 5,4 7,3 29 16 48 26 SW 1009,0 0,1 0 0,0
08.12.2018 06:00:00 1,2 1,2 1,3 3,1 5,5 7,3 29 15 49 26 SW 1009,0 0,3 0 0,0
08.12.2018 05:00:00 1,5 0,9 1,4 3,2 5,5 7,3 27 15 50 27 WSW 1009,0 39 0 0,0
08.12.2018 04:00:00 1,9 1,0 1,6 3,3 5,6 7,3 35 19 55 30 SW 1008,7 40 0 0,0
08.12.2018 03:00:00 1,8 0,8 1,5 3,5 5,6 7,3 28 15 55 30 WSW 1008,5 35 0 0,0
08.12.2018 02:00:00 1,8 1,0 1,5 3,8 5,6 7,3 32 18 55 30 WSW 1008,0 35 0 0,0
08.12.2018 01:00:00 1,8 1,8 1,9 4,1 5,6 7,3 34 18 50 27 WSW 1007,6 24 0 0,0
08.12.2018 00:00:00 1,7 1,7 1,9 4,4 5,6 7,3 32 17 50 27 W 1007,2 0,2 0 0,0
07.12.2018 23:00:00 2,1 2,1 2,0 5,0 5,6 7,3 42 23 73 40 WNW 1005,7 56 0 0,2
07.12.2018 22:00:00 3,9 3,9 4,0 5,4 5,6 7,4 49 27 85 46 W 1002,8 2,3 0 0,4
07.12.2018 21:00:00 5,2 5,2 5,3 5,5 5,6 7,4 40 22 69 37 SSW 1001,0 0,1 0 1,1
07.12.2018 20:00:00 4,9 4,9 5,0 5,5 5,6 7,4 36 20 61 33 SSW 1001,8 0,1 0 2,1
07.12.2018 19:00:00 5,0 5,0 5,1 5,7 5,5 7,4 39 21 64 34 SSW 1002,9 0,4 0 1,1
07.12.2018 18:00:00 5,5 5,5 5,6 5,9 5,5 7,4 45 25 77 41 SSW 1003,3 0,1 0 0,1
07.12.2018 17:00:00 5,7 5,7 5,7 6,0 5,5 7,4 42 23 70 38 SSW 1004,3 0,1 0 0,0
07.12.2018 16:00:00 5,8 5,8 5,9 6,1 5,4 7,4 39 21 58 32 SSW 1005,5 0,1 0 0,4
07.12.2018 15:00:00 5,9 5,9 6,0 6,2 5,4 7,4 35 19 61 33 SSW 1006,8 0,1 0 2,2
07.12.2018 14:00:00 6,1 6,1 6,2 6,2 5,3 7,4 32 17 54 29 SSW 1008,5 0,1 0 2,5
07.12.2018 13:00:00 6,3 6,3 6,4 6,3 5,3 7,5 31 17 56 31 SSW 1010,0 0,1 0 0,2
07.12.2018 12:00:00 6,3 6,3 6,5 6,3 5,2 7,5 34 18 57 31 SW 1011,1 0,1 0 1,9
07.12.2018 11:00:00 6,3 6,3 6,4 6,3 5,2 7,5 33 18 55 30 SSW 1012,5 0,1 0 0,3
07.12.2018 10:00:00 6,4 6,4 6,5 6,4 5,1 7,5 33 18 52 28 SW 1012,9 0,1 0 0,6
07.12.2018 09:00:00 6,8 6,8 6,9 6,4 5,1 7,5 34 18 56 30 SW 1013,4 0,1 0 0,8
07.12.2018 08:00:00 7,3 7,3 7,3 6,5 5,0 7,5 28 15 45 25 SW 1013,6 0,1 0 0,9
07.12.2018 07:00:00 7,5 7,5 7,5 6,4 4,9 7,5 29 15 46 25 SW 1013,9 0,1 0 0,9
07.12.2018 06:00:00 7,5 7,5 7,5 6,4 4,9 7,5 28 15 48 26 SW 1014,4 0,1 0 0,5
07.12.2018 05:00:00 7,6 7,6 7,6 6,3 4,8 7,5 31 17 47 26 SW 1014,8 0,1 0 0,4
07.12.2018 04:00:00 7,6 7,6 7,6 6,2 4,7 7,5 30 16 46 25 SW 1015,3 0,1 0 0,2
07.12.2018 03:00:00 7,6 7,6 7,6 6,1 4,7 7,5 31 17 47 25 SW 1016,0 - 0 0,1
07.12.2018 02:00:00 7,5 7,5 7,5 5,9 4,6 7,5 29 15 45 24 SW 1016,4 - 0 0,0
07.12.2018 01:00:00 7,5 7,5 7,4 5,8 4,6 7,5 27 14 45 24 SW 1017,2 - 0 0,1
07.12.2018 00:00:00 7,3 7,3 7,3 5,6 4,5 7,5 27 14 42 23 SW 1017,6 - 0 0,1
06.12.2018 23:00:00 7,1 7,1 7,1 5,5 4,5 7,5 27 15 42 23 SW 1017,9 - 0 0,0
06.12.2018 22:00:00 7,1 7,1 7,1 5,4 4,4 7,5 25 13 40 22 SW 1018,1 - 0 0,0
06.12.2018 21:00:00 6,9 6,9 6,9 5,2 4,3 7,5 24 13 45 24 SW 1018,3 - 0 0,0
06.12.2018 20:00:00 6,8 6,8 6,8 5,1 4,3 7,5 24 13 42 23 SW 1018,8 0,1 0 0,0
06.12.2018 19:00:00 6,7 6,7 6,7 4,9 4,3 7,5 26 14 43 23 SW 1019,0 - 0 0,1
06.12.2018 18:00:00 6,6 6,6 6,5 4,7 4,2 7,5 24 13 39 21 SW 1018,9 - 0 0,0
06.12.2018 17:00:00 6,3 6,3 6,3 4,4 4,2 7,5 24 13 37 20 SW 1019,0 - 0 0,0
06.12.2018 16:00:00 5,5 5,5 5,5 4,2 4,1 7,5 19 10 30 16 SW 1019,1 - 0 0,0
06.12.2018 15:00:00 5,0 5,0 5,1 4,1 4,1 7,5 17 9 27 15 SW 1018,8 - 0 0,0
06.12.2018 14:00:00 4,6 4,6 4,9 4,0 4,1 7,5 13 7 20 11 SSW 1018,9 - 0 0,0
06.12.2018 13:00:00 4,3 4,3 4,6 3,8 4,1 7,5 11 6 23 12 S 1018,9 - 0 0,4
06.12.2018 12:00:00 4,0 4,0 4,3 3,5 4,0 7,5 12 7 21 11 SW 1019,5 0,1 0 0,1
06.12.2018 11:00:00 3,7 3,7 4,0 3,2 4,0 7,5 13 7 27 14 SSW 1019,2 - 0 0,0
06.12.2018 10:00:00 3,4 3,4 3,7 2,9 4,0 7,5 16 9 28 15 SSW 1019,0 0,1 0 0,2
06.12.2018 09:00:00 3,4 3,4 3,4 2,7 4,0 7,5 18 10 31 17 SSW 1019,0 0,1 0 0,1
06.12.2018 08:00:00 3,0 3,0 3,1 2,5 4,0 7,5 16 9 24 13 SSW 1018,1 - 0 0,3
06.12.2018 07:00:00 2,7 2,7 2,8 2,3 4,0 7,5 16 9 25 13 S 1017,7 0,1 0 0,2
06.12.2018 06:00:00 2,5 2,5 2,6 2,2 4,1 7,5 16 9 30 16 S 1017,6 - 0 0,1
06.12.2018 05:00:00 2,2 2,2 2,3 2,0 4,1 7,5 21 12 34 18 SSE 1017,5 - 0 0,9
06.12.2018 04:00:00 1,8 1,8 1,9 1,9 4,1 7,5 19 10 29 16 SSE 1017,7 0,1 0 0,0
06.12.2018 03:00:00 2,0 2,0 2,0 1,7 4,1 7,5 19 10 30 16 SSE 1018,3 0,1 0 0,2
06.12.2018 02:00:00 1,8 1,8 1,8 1,5 4,2 7,5 22 12 31 17 SSE 1018,7 0,1 0 0,0
06.12.2018 01:00:00 1,0 1,0 1,0 1,3 4,2 7,5 20 11 34 18 SE 1019,2 0,1 0 0,0
06.12.2018 00:00:00 0,8 0,8 0,9 1,2 4,2 7,5 22 12 33 18 SE 1019,7 0,1 0 0,0

tt = temperature
td = dewpoint
tt 5cm = temperature 5cm
tt -5cm = temperature -5cm
tt -20cm = temperature -20cm
tt -100cm = temperature -100cm
ff = wind speed
fx = gusts
dd = wind direction
ppp = reduced air pressure
vv = visibility
sd = sunshine duration
rr = precipitation

Next stations